SCP
0 0 1 1 2 1 0 0 1 1 1 1 1 1 1 1 2 2 2 1 1 1 1 1 0 0 0 0 0 0 0 0 0 0 0 0 0 0 0 0 0 0 0
0 0 0 0 1 1 2 1 1 1 1 1 1 1 1 1 3 3 2 2 2 2 1 1 0 0 1 1 0 0 0 0 0 0 0 0 0 0 0 0 0 0 0
-0 -0 0 0 0 0 0 0 2 2 2 1 1 1 0 0 2 4 3 3 3 2 1 1 0 1 0 0 0 1 0 1 0 0 0 0 0 0 0 0 0 0 0
0 0 0 0 0 0 0 0 0 1 1 1 1 1 0 -0 0 0 2 5 4 3 1 1 0 0 0 0 0 0 0 0 0 0 0 0 0 0 0 0 0 0 0
0 0 0 0 0 0 0 0 0 0 0 0 0 0 0 1 -1 0 1 1 2 2 1 0 0 0 0 0 0 0 0 0 0 0 0 0 0 0 0 0 0 0 0
0 0 0 0 0 0 0 0 0 0 0 0 0 0 0 0 0 0 0 0 0 -0 0 0 0 0 0 0 0 0 0 0 0 0 0 0 0 0 0 0 0 0 0
0 0 0 0 0 0 0 0 0 0 0 0 0 0 0 0 0 0 0 1 1 0 0 0 0 0 0 0 0 0 0 0 0 0 0 0 0 0 0 0 0 0 0
0 0 0 0 0 0 0 0 0 0 0 0 0 0 0 0 0 0 0 0 1 0 0 0 0 0 0 0 0 0 0 0 0 0 0 0 0 0 0 0 0 0 0
0 0 0 0 0 0 0 0 0 0 0 -0 0 0 0 0 0 0 0 0 0 0 0 0 0 0 0 0 0 0 0 0 0 0 0 0 0 0 0 0 0 0 0
0 0 0 0 0 0 0 0 0 0 0 0 0 0 0 0 0 0 0 0 0 0 0 0 0 0 0 0 0 0 0 0 0 0 0 0 0 0 0 0 0 0 0
0 0 0 0 0 0 0 0 0 0 0 0 0 0 0 0 0 0 0 0 0 0 0 1 0 0 0 0 0 0 0 0 0 0 0 0 0 0 0 0 0 0 0
0 0 0 0 0 0 0 0 0 0 0 0 0 0 0 0 0 0 0 0 0 0 1 0 0 0 0 0 0 0 0 0 0 0 0 0 0 0 0 0 0 0 0
0 0 0 0 0 0 0 0 0 0 0 0 0 0 0 0 0 0 0 0 0 0 0 0 0 0 0 0 0 0 0 0 0 0 0 0 0 0 0 0 0 0 0
0 0 0 0 0 0 0 0 0 0 0 0 0 0 0 0 0 0 0 0 0 0 0 0 0 0 0 0 0 0 0 0 0 0 0 0 0 0 0 0 0 0 0
-0 0 0 0 0 0 0 0 0 0 0 0 0 0 0 0 0 0 0 0 0 0 0 0 0 0 0 0 0 0 0 0 0 0 0 0 0 0 0 0 0 0 0
0 0 0 0 0 -0 0 0 0 0 0 0 0 0 0 0 0 0 0 0 0 0 0 0 0 0 0 0 0 0 0 0 0 0 0 0 0 0 0 0 0 0 0
0 0 0 0 0 0 -0 -0 -0 0 0 0 0 0 0 0 0 0 0 0 0 0 0 0 0 0 0 0 0 0 0 0 0 0 0 0 0 0 0 0 0 0 0
0 0 0 0 0 -0 0 0 -0 -0 -0 0 0 0 0 0 0 0 0 0 0 0 0 0 0 0 0 0 0 0 0 0 0 0 0 0 0 0 0 0 0 0 0
0 0 0 0 0 0 -0 0 0 0 -0 -0 0 0 0 0 0 0 0 0 0 0 0 0 0 0 0 0 0 0 0 0 0 0 0 0 0 0 0 0 0 0 0
0 0 0 0 0 0 0 0 -0 -0 0 0 0 0 0 0 0 0 0 0 0 0 0 0 0 0 0 0 0 0 0 0 0 0 0 0 0 0 0 0 0 0 0
0 0 0 0 0 0 -0 0 0 0 0 -0 -0 0 0 0 -0 0 0 0 0 0 0 0 0 0 0 0 0 0 0 0 0 0 0 0 0 0 0 0 0 0 0
0 0 0 0 -0 -0 -0 0 0 0 0 0 0 -0 -0 0 0 -0 0 0 0 0 0 0 0 0 0 0 0 0 0 0 0 0 0 0 0 0 0 0 0 0 0
0 0 0 -0 -0 -0 -0 -0 -0 -0 -0 0 0 0 0 0 0 -0 -0 -0 0 0 0 0 0 0 0 0 0 0 0 0 0 0 0 0 0 0 0 0 0 0 0
0 -0 -0 0 0 -0 -0 0 -0 -0 0 0 0 0 0 0 0 0 0 0 0 0 0 0 0 0 0 0 0 0 0 0 0 0 0 0 0 0 0 0 0 0 0
0 0 0 0 0 0 0 0 0 0 0 0 0 0 0 0 0 0 0 -0 0 0 0 0 0 0 -0 -0 0 0 0 0 0 0 0 0 0 0 0 0 0 0 0
0 0 0 0 0 0 0 0 0 0 0 0 0 0 0 0 0 0 0 0 0 0 0 0 0 -0 -0 -0 -0 0 0 0 0 0 0 0 0 0 0 0 0 0 0
Wind_Speed_500mb
30 28 32 27 48 68 74 79 76 74 77 78 75 72 71 69 67 65 62 56 49 43 38 33 28 23 20 17 15 15 15 12 8 10 15 16 14 11 9 9 12 18 25
35 30 30 27 29 34 54 66 68 71 74 80 84 84 79 83 81 80 76 70 63 56 49 43 39 33 29 24 20 19 17 15 10 7 14 16 15 11 9 9 14 15 19
34 33 27 25 23 21 29 45 63 70 76 73 71 78 80 81 89 91 90 85 75 65 59 51 44 41 37 31 26 23 21 19 15 11 15 19 16 14 12 11 13 18 19
30 32 32 24 19 19 18 22 33 52 71 73 76 79 96 88 91 91 86 97 92 75 62 56 49 46 41 37 32 28 22 17 11 9 16 20 20 14 15 19 18 17 20
36 33 34 36 35 27 21 17 26 37 55 68 74 80 92 101 105 88 90 90 104 82 75 62 54 49 43 39 38 35 27 20 13 7 6 13 23 23 21 19 20 20 23
41 39 38 37 38 36 42 34 26 13 28 43 55 62 82 102 108 106 82 101 97 102 76 60 58 52 46 44 41 34 29 24 21 13 11 11 22 27 26 25 22 25 23
47 44 38 35 39 45 44 47 52 53 50 51 40 41 35 56 65 71 66 79 82 82 67 63 60 57 53 51 48 41 35 32 28 26 25 23 24 29 28 23 28 26 22
52 54 48 40 40 40 43 46 47 46 50 50 51 56 63 39 32 42 39 59 65 68 65 65 61 56 55 55 53 47 40 36 33 30 29 29 30 31 30 27 25 28 28
45 45 51 51 50 47 44 40 43 45 45 44 48 52 68 57 29 11 43 43 57 63 65 62 61 56 54 56 53 49 43 38 34 34 32 32 32 30 32 31 31 29 29
51 53 55 60 63 60 54 50 56 49 41 45 44 50 51 60 71 84 44 43 59 60 62 65 62 60 56 54 53 52 50 44 35 34 35 33 32 32 31 31 34 33 30
58 62 64 65 64 64 61 58 59 58 53 45 42 37 44 51 57 66 61 55 30 57 73 67 71 68 63 63 60 59 57 44 38 34 36 36 36 33 27 30 32 36 34
61 61 58 53 52 52 52 53 53 57 57 55 52 51 30 29 41 54 61 59 59 51 52 74 83 73 69 68 64 62 58 52 46 40 33 34 30 33 29 26 26 27 25
58 57 53 51 52 48 49 55 55 53 52 49 45 54 57 59 45 41 39 50 56 56 54 47 49 50 51 58 64 65 64 61 55 44 41 39 33 27 31 24 24 26 30
73 73 70 65 60 61 54 49 56 64 62 60 57 54 51 62 64 68 61 53 51 50 51 53 52 53 59 57 59 57 58 62 60 52 44 41 34 36 39 30 24 33 34
70 68 65 65 64 63 63 64 62 57 62 67 66 62 59 58 61 77 78 74 67 64 64 66 70 72 73 78 79 79 67 65 66 63 51 48 44 40 37 40 30 33 38
60 62 62 63 60 60 61 62 63 67 67 70 69 65 59 63 64 65 76 83 85 84 87 83 68 72 83 80 93 94 80 80 68 66 63 57 53 50 45 39 42 40 43
55 59 60 60 56 58 60 61 65 68 68 66 65 66 68 69 63 60 64 69 67 68 83 69 68 66 63 66 66 65 69 62 69 68 69 62 59 58 56 46 37 45 48
57 57 57 59 58 60 64 65 62 63 62 63 63 61 62 67 68 69 66 57 62 69 70 66 64 60 59 57 57 59 57 55 59 60 70 67 62 63 61 56 48 44 50
56 55 55 55 54 56 59 62 63 67 70 70 66 64 62 60 60 63 63 78 83 80 73 73 66 62 65 63 58 57 54 56 57 57 60 66 67 66 66 61 54 53 51
51 50 48 50 52 53 52 54 60 65 66 62 62 64 60 57 63 67 72 76 86 91 91 87 80 80 78 75 74 58 53 54 55 57 57 61 65 67 67 65 60 57 69
51 48 43 43 45 47 50 51 54 55 59 63 68 68 72 74 68 68 69 71 75 86 91 95 89 83 80 86 82 68 62 64 59 60 65 67 64 67 65 65 60 59 65
42 39 36 35 35 37 40 44 49 53 58 62 62 59 57 62 69 73 76 72 75 75 78 85 90 92 87 78 70 76 72 64 65 64 67 61 65 62 62 62 63 68 72
40 38 35 30 27 27 29 31 40 48 53 55 55 55 54 57 61 64 66 69 75 74 71 74 74 80 75 75 74 70 66 70 68 75 64 64 69 64 64 64 66 71 74
46 42 38 33 28 26 27 28 35 32 37 43 47 49 52 54 56 57 60 65 72 81 81 77 76 71 76 76 76 79 73 67 61 72 77 63 65 72 71 67 68 70 72
54 51 46 42 38 35 32 28 24 20 24 27 31 36 40 44 51 55 56 59 62 63 65 70 71 72 75 80 80 70 66 66 63 62 80 82 66 72 78 73 68 62 61
64 60 54 49 44 40 36 33 29 25 23 25 27 29 32 36 42 46 47 50 55 58 62 67 69 66 63 69 71 67 64 66 65 67 73 79 73 74 80 78 75 72 65
Wind_Direction_500mb
354 357 356 319 269 257 251 248 248 239 237 233 237 235 231 227 224 220 218 217 220 224 228 231 234 236 237 241 245 247 248 241 250 285 310 318 323 335 335 299 300 290 293
346 342 336 332 336 291 256 253 250 243 242 241 242 245 240 237 234 228 224 222 223 225 228 230 234 234 230 233 233 237 238 245 233 253 303 312 323 318 302 305 290 297 300
331 338 340 331 320 316 302 264 245 245 241 243 242 245 247 244 242 239 232 228 224 225 229 231 233 233 231 229 226 227 230 241 251 255 277 291 306 320 304 283 270 281 289
339 335 318 322 323 322 316 284 272 245 244 240 243 246 236 257 256 253 243 235 226 225 226 231 231 233 230 227 219 214 211 220 236 253 278 280 285 289 307 277 273 278 282
323 321 319 319 296 293 286 298 277 269 258 248 236 241 239 234 262 254 246 255 237 227 221 223 226 227 226 224 216 207 207 218 237 237 270 300 298 286 280 284 280 273 271
312 315 308 305 301 300 283 278 270 269 267 268 259 241 234 237 248 255 245 248 250 256 216 219 223 220 216 215 212 215 225 235 246 250 266 274 302 299 283 277 270 267 264
300 304 304 307 300 295 292 289 280 274 268 261 260 260 252 236 242 251 257 244 238 235 220 224 217 216 215 217 219 222 228 241 252 267 284 296 306 302 279 269 272 267 275
292 289 293 295 295 297 296 290 282 277 272 267 264 258 253 256 251 250 255 240 226 218 212 215 217 219 217 221 224 228 232 239 252 265 277 291 305 299 283 261 266 263 266
294 293 288 286 286 285 285 283 286 281 276 273 262 257 245 244 238 274 242 228 217 212 207 207 212 215 220 224 225 228 230 242 251 259 266 283 296 297 281 264 252 257 255
286 288 288 286 284 279 276 275 276 282 274 274 270 254 252 248 246 255 272 235 214 206 213 207 209 214 218 223 227 231 235 244 254 261 261 271 285 290 277 270 254 253 255
286 288 287 285 278 273 269 265 267 268 272 265 267 252 246 241 236 232 232 227 244 225 221 219 219 216 224 224 228 230 236 249 256 257 256 263 273 281 273 267 265 240 252
284 283 280 276 275 269 261 258 255 256 258 260 251 252 253 238 233 227 229 229 237 243 228 223 222 225 231 231 230 233 241 246 244 243 239 249 250 267 266 264 262 254 243
280 281 275 274 274 269 262 255 252 250 250 250 251 247 244 246 230 223 213 212 217 231 232 231 228 228 228 230 234 236 236 237 237 233 232 242 246 251 255 256 241 222 232
284 281 278 274 272 270 263 257 251 247 248 249 249 248 249 242 238 240 238 234 234 238 241 240 241 239 243 241 243 236 235 236 236 235 234 238 238 241 246 243 247 222 226
285 283 278 274 273 273 267 260 255 249 245 246 248 248 246 247 245 240 237 239 243 250 253 255 251 248 248 250 246 248 243 241 238 238 232 234 234 232 230 240 235 232 231
287 284 278 277 271 266 264 266 263 257 253 254 252 246 246 246 237 239 246 241 242 244 252 251 246 250 249 246 248 245 241 241 240 237 233 233 236 234 227 231 236 231 231
291 284 280 274 273 273 267 263 261 263 265 261 253 247 247 247 248 253 244 245 243 235 236 236 237 235 237 234 235 237 233 233 234 235 236 232 231 232 228 224 227 236 227
294 288 281 275 272 267 261 260 262 259 259 260 259 255 250 248 247 247 245 234 234 231 229 231 233 233 233 234 230 231 230 225 227 227 231 228 224 225 227 224 226 226 225
297 290 285 280 271 264 262 262 261 259 256 258 259 256 254 251 245 244 244 235 234 233 232 232 232 232 232 227 227 226 228 226 224 223 226 226 222 220 224 227 224 227 222
310 302 293 284 277 273 268 261 255 252 252 254 251 249 250 249 249 242 236 235 232 232 233 235 236 239 232 230 227 219 223 225 226 223 221 224 221 218 219 224 224 222 223
321 317 311 299 287 279 271 265 261 257 255 253 252 250 248 248 246 240 239 240 234 233 232 234 235 235 236 232 228 224 229 230 230 224 219 220 216 216 216 220 224 218 222
331 328 323 314 305 294 284 276 268 262 259 259 259 257 251 242 244 244 244 244 240 238 234 236 237 234 231 231 225 227 226 227 225 218 221 215 218 214 212 215 217 215 213
349 347 342 334 328 320 311 301 291 275 268 265 264 261 256 251 246 241 237 233 238 241 238 237 236 234 228 229 227 224 224 225 226 221 220 222 212 214 211 209 208 209 214
4 360 354 350 341 332 322 310 320 298 276 269 268 264 259 256 251 246 243 239 233 235 240 241 233 227 224 224 226 230 230 221 217 217 210 216 221 213 211 205 202 206 211
15 11 8 3 359 354 346 338 323 330 302 290 282 273 268 261 255 251 247 244 240 236 233 238 239 236 233 232 234 228 216 215 214 214 216 218 218 207 201 201 198 197 208
23 20 16 12 7 0 352 343 335 329 309 284 276 275 280 270 261 257 252 246 241 238 234 232 235 236 229 225 225 219 219 216 215 216 216 218 213 209 202 201 205 208 213
Wind_Speed_850mb
30 28 32 27 48 68 74 79 76 74 77 78 75 72 71 69 67 65 62 56 49 43 38 33 28 23 20 17 15 15 15 12 8 10 15 16 14 11 9 9 12 18 25
35 30 30 27 29 34 54 66 68 71 74 80 84 84 79 83 81 80 76 70 63 56 49 43 39 33 29 24 20 19 17 15 10 7 14 16 15 11 9 9 14 15 19
34 33 27 25 23 21 29 45 63 70 76 73 71 78 80 81 89 91 90 85 75 65 59 51 44 41 37 31 26 23 21 19 15 11 15 19 16 14 12 11 13 18 19
30 32 32 24 19 19 18 22 33 52 71 73 76 79 96 88 91 91 86 97 92 75 62 56 49 46 41 37 32 28 22 17 11 9 16 20 20 14 15 19 18 17 20
36 33 34 36 35 27 21 17 26 37 55 68 74 80 92 101 105 88 90 90 104 82 75 62 54 49 43 39 38 35 27 20 13 7 6 13 23 23 21 19 20 20 23
41 39 38 37 38 36 42 34 26 13 28 43 55 62 82 102 108 106 82 101 97 102 76 60 58 52 46 44 41 34 29 24 21 13 11 11 22 27 26 25 22 25 23
47 44 38 35 39 45 44 47 52 53 50 51 40 41 35 56 65 71 66 79 82 82 67 63 60 57 53 51 48 41 35 32 28 26 25 23 24 29 28 23 28 26 22
52 54 48 40 40 40 43 46 47 46 50 50 51 56 63 39 32 42 39 59 65 68 65 65 61 56 55 55 53 47 40 36 33 30 29 29 30 31 30 27 25 28 28
45 45 51 51 50 47 44 40 43 45 45 44 48 52 68 57 29 11 43 43 57 63 65 62 61 56 54 56 53 49 43 38 34 34 32 32 32 30 32 31 31 29 29
51 53 55 60 63 60 54 50 56 49 41 45 44 50 51 60 71 84 44 43 59 60 62 65 62 60 56 54 53 52 50 44 35 34 35 33 32 32 31 31 34 33 30
58 62 64 65 64 64 61 58 59 58 53 45 42 37 44 51 57 66 61 55 30 57 73 67 71 68 63 63 60 59 57 44 38 34 36 36 36 33 27 30 32 36 34
61 61 58 53 52 52 52 53 53 57 57 55 52 51 30 29 41 54 61 59 59 51 52 74 83 73 69 68 64 62 58 52 46 40 33 34 30 33 29 26 26 27 25
58 57 53 51 52 48 49 55 55 53 52 49 45 54 57 59 45 41 39 50 56 56 54 47 49 50 51 58 64 65 64 61 55 44 41 39 33 27 31 24 24 26 30
73 73 70 65 60 61 54 49 56 64 62 60 57 54 51 62 64 68 61 53 51 50 51 53 52 53 59 57 59 57 58 62 60 52 44 41 34 36 39 30 24 33 34
70 68 65 65 64 63 63 64 62 57 62 67 66 62 59 58 61 77 78 74 67 64 64 66 70 72 73 78 79 79 67 65 66 63 51 48 44 40 37 40 30 33 38
60 62 62 63 60 60 61 62 63 67 67 70 69 65 59 63 64 65 76 83 85 84 87 83 68 72 83 80 93 94 80 80 68 66 63 57 53 50 45 39 42 40 43
55 59 60 60 56 58 60 61 65 68 68 66 65 66 68 69 63 60 64 69 67 68 83 69 68 66 63 66 66 65 69 62 69 68 69 62 59 58 56 46 37 45 48
57 57 57 59 58 60 64 65 62 63 62 63 63 61 62 67 68 69 66 57 62 69 70 66 64 60 59 57 57 59 57 55 59 60 70 67 62 63 61 56 48 44 50
56 55 55 55 54 56 59 62 63 67 70 70 66 64 62 60 60 63 63 78 83 80 73 73 66 62 65 63 58 57 54 56 57 57 60 66 67 66 66 61 54 53 51
51 50 48 50 52 53 52 54 60 65 66 62 62 64 60 57 63 67 72 76 86 91 91 87 80 80 78 75 74 58 53 54 55 57 57 61 65 67 67 65 60 57 69
51 48 43 43 45 47 50 51 54 55 59 63 68 68 72 74 68 68 69 71 75 86 91 95 89 83 80 86 82 68 62 64 59 60 65 67 64 67 65 65 60 59 65
42 39 36 35 35 37 40 44 49 53 58 62 62 59 57 62 69 73 76 72 75 75 78 85 90 92 87 78 70 76 72 64 65 64 67 61 65 62 62 62 63 68 72
40 38 35 30 27 27 29 31 40 48 53 55 55 55 54 57 61 64 66 69 75 74 71 74 74 80 75 75 74 70 66 70 68 75 64 64 69 64 64 64 66 71 74
46 42 38 33 28 26 27 28 35 32 37 43 47 49 52 54 56 57 60 65 72 81 81 77 76 71 76 76 76 79 73 67 61 72 77 63 65 72 71 67 68 70 72
54 51 46 42 38 35 32 28 24 20 24 27 31 36 40 44 51 55 56 59 62 63 65 70 71 72 75 80 80 70 66 66 63 62 80 82 66 72 78 73 68 62 61
64 60 54 49 44 40 36 33 29 25 23 25 27 29 32 36 42 46 47 50 55 58 62 67 69 66 63 69 71 67 64 66 65 67 73 79 73 74 80 78 75 72 65
Wind_Direction_850mb
354 357 356 319 269 257 251 248 248 239 237 233 237 235 231 227 224 220 218 217 220 224 228 231 234 236 237 241 245 247 248 241 250 285 310 318 323 335 335 299 300 290 293
346 342 336 332 336 291 256 253 250 243 242 241 242 245 240 237 234 228 224 222 223 225 228 230 234 234 230 233 233 237 238 245 233 253 303 312 323 318 302 305 290 297 300
331 338 340 331 320 316 302 264 245 245 241 243 242 245 247 244 242 239 232 228 224 225 229 231 233 233 231 229 226 227 230 241 251 255 277 291 306 320 304 283 270 281 289
339 335 318 322 323 322 316 284 272 245 244 240 243 246 236 257 256 253 243 235 226 225 226 231 231 233 230 227 219 214 211 220 236 253 278 280 285 289 307 277 273 278 282
323 321 319 319 296 293 286 298 277 269 258 248 236 241 239 234 262 254 246 255 237 227 221 223 226 227 226 224 216 207 207 218 237 237 270 300 298 286 280 284 280 273 271
312 315 308 305 301 300 283 278 270 269 267 268 259 241 234 237 248 255 245 248 250 256 216 219 223 220 216 215 212 215 225 235 246 250 266 274 302 299 283 277 270 267 264
300 304 304 307 300 295 292 289 280 274 268 261 260 260 252 236 242 251 257 244 238 235 220 224 217 216 215 217 219 222 228 241 252 267 284 296 306 302 279 269 272 267 275
292 289 293 295 295 297 296 290 282 277 272 267 264 258 253 256 251 250 255 240 226 218 212 215 217 219 217 221 224 228 232 239 252 265 277 291 305 299 283 261 266 263 266
294 293 288 286 286 285 285 283 286 281 276 273 262 257 245 244 238 274 242 228 217 212 207 207 212 215 220 224 225 228 230 242 251 259 266 283 296 297 281 264 252 257 255
286 288 288 286 284 279 276 275 276 282 274 274 270 254 252 248 246 255 272 235 214 206 213 207 209 214 218 223 227 231 235 244 254 261 261 271 285 290 277 270 254 253 255
286 288 287 285 278 273 269 265 267 268 272 265 267 252 246 241 236 232 232 227 244 225 221 219 219 216 224 224 228 230 236 249 256 257 256 263 273 281 273 267 265 240 252
284 283 280 276 275 269 261 258 255 256 258 260 251 252 253 238 233 227 229 229 237 243 228 223 222 225 231 231 230 233 241 246 244 243 239 249 250 267 266 264 262 254 243
280 281 275 274 274 269 262 255 252 250 250 250 251 247 244 246 230 223 213 212 217 231 232 231 228 228 228 230 234 236 236 237 237 233 232 242 246 251 255 256 241 222 232
284 281 278 274 272 270 263 257 251 247 248 249 249 248 249 242 238 240 238 234 234 238 241 240 241 239 243 241 243 236 235 236 236 235 234 238 238 241 246 243 247 222 226
285 283 278 274 273 273 267 260 255 249 245 246 248 248 246 247 245 240 237 239 243 250 253 255 251 248 248 250 246 248 243 241 238 238 232 234 234 232 230 240 235 232 231
287 284 278 277 271 266 264 266 263 257 253 254 252 246 246 246 237 239 246 241 242 244 252 251 246 250 249 246 248 245 241 241 240 237 233 233 236 234 227 231 236 231 231
291 284 280 274 273 273 267 263 261 263 265 261 253 247 247 247 248 253 244 245 243 235 236 236 237 235 237 234 235 237 233 233 234 235 236 232 231 232 228 224 227 236 227
294 288 281 275 272 267 261 260 262 259 259 260 259 255 250 248 247 247 245 234 234 231 229 231 233 233 233 234 230 231 230 225 227 227 231 228 224 225 227 224 226 226 225
297 290 285 280 271 264 262 262 261 259 256 258 259 256 254 251 245 244 244 235 234 233 232 232 232 232 232 227 227 226 228 226 224 223 226 226 222 220 224 227 224 227 222
310 302 293 284 277 273 268 261 255 252 252 254 251 249 250 249 249 242 236 235 232 232 233 235 236 239 232 230 227 219 223 225 226 223 221 224 221 218 219 224 224 222 223
321 317 311 299 287 279 271 265 261 257 255 253 252 250 248 248 246 240 239 240 234 233 232 234 235 235 236 232 228 224 229 230 230 224 219 220 216 216 216 220 224 218 222
331 328 323 314 305 294 284 276 268 262 259 259 259 257 251 242 244 244 244 244 240 238 234 236 237 234 231 231 225 227 226 227 225 218 221 215 218 214 212 215 217 215 213
349 347 342 334 328 320 311 301 291 275 268 265 264 261 256 251 246 241 237 233 238 241 238 237 236 234 228 229 227 224 224 225 226 221 220 222 212 214 211 209 208 209 214
4 360 354 350 341 332 322 310 320 298 276 269 268 264 259 256 251 246 243 239 233 235 240 241 233 227 224 224 226 230 230 221 217 217 210 216 221 213 211 205 202 206 211
15 11 8 3 359 354 346 338 323 330 302 290 282 273 268 261 255 251 247 244 240 236 233 238 239 236 233 232 234 228 216 215 214 214 216 218 218 207 201 201 198 197 208
23 20 16 12 7 0 352 343 335 329 309 284 276 275 280 270 261 257 252 246 241 238 234 232 235 236 229 225 225 219 219 216 215 216 216 218 213 209 202 201 205 208 213